Whiteman AFB, MO

9:06 PM CDT on June 27, 2017 (GMT -0500)
Whiteman Air Force Base

Weather History for KSZL - January, 2015

Change the Weather History Date:

Saturday, January 31, 2015

  Actual Average Record
Temperature  
Mean Temperature 36 °F -  
Max Temperature 41 °F 39 °F 65 °F (2012)
Min Temperature 31 °F 22 °F 5 °F (2004)
Degree Days  
Heating Degree Days 29    
Moisture  
Dew Point 32 °F    
Average Humidity 86    
Maximum Humidity 100    
Minimum Humidity 55    
Precipitation  
Precipitation 0.42 in - - ()
Sea Level Pressure  
Sea Level Pressure 30.15 in    
Wind  
Wind Speed 4 mph (SE)    
Max Wind Speed 7 mph    
Max Gust Speed 17 mph    
Visibility 9 miles    
Events Rain    
Averages and records for this station are not official NWS values.
T = Trace of Precipitation, MM = Missing Value Source: NWS Daily Summary

Daily Weather History Graph

Daily Weather History Graph

Search for Another Location

Airport or City:

Trip Planner

Search our weather history database for the weather conditions in past years. The results will help you decide how hot, cold, wet, or windy it might be!

Date:

Astronomy

Jan. 31, 2015 Rise Set
Actual Time 7:21 AM CST 5:34 PM CST
Civil Twilight 6:53 AM CST 6:02 PM CST
Nautical Twilight 6:21 AM CST 6:34 PM CST
Astronomical Twilight 5:49 AM CST 7:05 PM CST
Moon 3:00 PM CST (1/31) 4:42 AM CST (1/31)
Length of Visible Light 11h 09m
Length of Day
10h 13m
Waxing Gibbous, 90% of the Moon is Illuminated
Jan 31
Waxing Gibbous
Feb 3
Full
Feb 11
Last Quarter
Feb 18
New
Feb 25
First Quarter

Hourly Weather History & Observations

Time (CST) Temp. Windchill Dew Point Humidity Pressure Visibility Wind Dir Wind Speed Gust Speed Precip Events Conditions
12:58 AM 31.3 °F - 21.2 °F 66% 30.37 in 10.0 mi SE 1.2 mph - N/A   Clear
1:58 AM 31.8 °F - 22.3 °F 68% 30.35 in 10.0 mi SE 2.3 mph - N/A   Clear
2:58 AM 32.0 °F 27.5 °F 23.0 °F 69% 30.32 in 10.0 mi South 4.6 mph - N/A   Clear
3:58 AM 34.3 °F 29.2 °F 22.3 °F 61% 30.32 in 10.0 mi SSW 5.8 mph - N/A   Clear
4:58 AM 35.2 °F - 20.5 °F 55% 30.30 in 10.0 mi South 1.2 mph - N/A   Clear
5:16 AM 35.6 °F 32.8 °F 23.0 °F 60% 30.28 in 10.0 mi SSW 3.5 mph - N/A   Light Drizzle
5:58 AM 33.8 °F - 26.6 °F 75% 30.30 in 10.0 mi Calm Calm - 0.01 in Rain Light Rain
6:53 AM 32.0 °F - 28.4 °F 87% 30.28 in 10.0 mi ESE 1.2 mph - N/A Rain Light Rain
6:58 AM 33.3 °F - 28.8 °F 84% 30.32 in 9.0 mi ENE 1.2 mph - 0.01 in Rain Light Rain
7:03 AM 32.0 °F - 30.2 °F 93% 30.27 in 10.0 mi NE 2.3 mph - N/A Rain Light Rain
7:58 AM 32.9 °F - 30.2 °F 90% 30.31 in 8.0 mi Calm Calm - 0.01 in Rain Light Rain
8:23 AM 32.0 °F - 32.0 °F 100% 30.27 in 8.0 mi SW 2.3 mph - N/A   Light Drizzle
8:28 AM 32.0 °F - 32.0 °F 100% 30.27 in 7.0 mi SW 2.3 mph - N/A Rain Light Rain
8:58 AM 33.6 °F 28.4 °F 30.6 °F 89% 30.32 in 7.0 mi SE 5.8 mph - 0.02 in Rain Light Rain
9:17 AM 33.8 °F 29.6 °F 32.0 °F 93% 30.28 in 10.0 mi South 4.6 mph - N/A   Mostly Cloudy
9:22 AM 33.8 °F 29.6 °F 32.0 °F 93% 30.28 in 10.0 mi South 4.6 mph - N/A   Light Drizzle
9:58 AM 34.7 °F 28.8 °F 31.8 °F 89% 30.30 in 6.0 mi SSE 6.9 mph - 0.01 in Rain Light Rain
10:23 AM 35.6 °F 30.7 °F 32.0 °F 87% 30.26 in 9.0 mi ESE 5.8 mph - N/A Rain Light Rain
10:58 AM 36.9 °F 34.3 °F 34.0 °F 89% 30.29 in 6.0 mi East 3.5 mph - 0.02 in Rain Light Rain
11:18 AM 37.4 °F - 33.8 °F 87% 30.24 in 10.0 mi Variable 2.3 mph - N/A   Light Drizzle
11:38 AM 37.4 °F - 35.6 °F 93% 30.23 in 6.0 mi Variable 1.2 mph - N/A Rain Light Rain
11:58 AM 37.9 °F 35.5 °F 35.4 °F 91% 30.25 in 4.0 mi Variable 3.5 mph - 0.04 in Rain Light Rain
12:58 PM 37.9 °F 33.5 °F 36.3 °F 94% 30.22 in 5.0 mi ESE 5.8 mph - 0.07 in Rain Light Rain
1:23 PM 39.2 °F 35.0 °F 37.4 °F 93% 30.16 in 9.0 mi East 5.8 mph - N/A   Light Drizzle
1:29 PM 39.2 °F 34.2 °F 37.4 °F 93% 30.15 in 10.0 mi East 6.9 mph - N/A   Partly Cloudy
1:58 PM 39.0 °F 35.7 °F 36.9 °F 92% 30.17 in 10.0 mi SSW 4.6 mph - 0.02 in   Clear
2:50 PM 39.2 °F - 37.4 °F 93% 30.12 in 10.0 mi Variable 1.2 mph - N/A   Light Drizzle
2:58 PM 40.1 °F 38.0 °F 36.9 °F 88% 30.15 in 10.0 mi SE 3.5 mph - 0.00 in   Light Drizzle
3:14 PM 41.0 °F 38.0 °F 35.6 °F 81% 30.10 in 10.0 mi Variable 4.6 mph - N/A   Partly Cloudy
3:57 PM 39.2 °F 34.2 °F 35.6 °F 87% 30.09 in 10.0 mi SE 6.9 mph 17.3 mph N/A   Light Drizzle
3:58 PM 39.9 °F 35.1 °F 36.5 °F 88% 30.12 in 10.0 mi SE 6.9 mph 17.3 mph 0.00 in   Light Drizzle
4:23 PM 39.2 °F 34.2 °F 35.6 °F 87% 30.06 in 10.0 mi ESE 6.9 mph - N/A   Light Drizzle
4:43 PM 39.2 °F 34.2 °F 35.6 °F 87% 30.05 in 10.0 mi ESE 6.9 mph - N/A   Light Drizzle
4:57 PM 39.2 °F 35.0 °F 35.6 °F 87% 30.04 in 10.0 mi ESE 5.8 mph - N/A   Clear
4:58 PM 38.8 °F 34.6 °F 35.4 °F 88% 30.07 in 10.0 mi ESE 5.8 mph - 0.00 in   Clear
5:58 PM 38.1 °F 32.9 °F 34.7 °F 87% 30.05 in 10.0 mi SE 6.9 mph - 0.00 in   Partly Cloudy
6:17 PM 37.4 °F 32.1 °F 33.8 °F 87% 30.03 in 10.0 mi SE 6.9 mph - N/A   Light Drizzle
6:58 PM 37.4 °F 32.1 °F 34.2 °F 88% 30.03 in 10.0 mi ESE 6.9 mph - 0.00 in Rain Light Rain
7:32 PM 37.4 °F 34.9 °F 32.0 °F 81% 30.00 in 10.0 mi SE 3.5 mph - N/A   Overcast
7:38 PM 37.4 °F 34.9 °F 32.0 °F 81% 30.00 in 10.0 mi SE 3.5 mph - N/A   Light Drizzle
7:58 PM 36.9 °F 34.3 °F 33.4 °F 87% 30.01 in 9.0 mi ESE 3.5 mph - 0.01 in Rain Light Rain
8:28 PM 35.6 °F 31.7 °F 33.8 °F 93% 29.97 in 10.0 mi ESE 4.6 mph - N/A Rain Light Rain
8:48 PM 35.6 °F 30.7 °F 32.0 °F 87% 29.95 in 9.0 mi ESE 5.8 mph - N/A Rain Light Rain
8:58 PM 35.6 °F 30.7 °F 32.0 °F 87% 29.98 in 8.0 mi SE 5.8 mph - 0.03 in Rain Light Rain
9:58 PM 35.6 °F 30.7 °F 33.4 °F 92% 29.96 in 7.0 mi ESE 5.8 mph - 0.08 in Rain Light Rain
10:58 PM 35.4 °F 32.6 °F 33.6 °F 93% 29.95 in 8.0 mi East 3.5 mph - 0.06 in Rain Light Rain
11:03 PM 35.6 °F 31.7 °F 32.0 °F 87% 29.91 in 8.0 mi ESE 4.6 mph - N/A Rain Light Rain
11:08 PM 35.6 °F 30.7 °F 32.0 °F 87% 29.91 in 8.0 mi ESE 5.8 mph - N/A Rain Light Rain
11:58 PM 33.8 °F 28.6 °F 32.5 °F 95% 29.92 in 7.0 mi ESE 5.8 mph - 0.03 in Rain Light Rain